Simultaneous Nadir Overpasses (SNOs) Predictions

Prediction of SNOs between METOP-C and LANDSAT-8 Satellite Orbit:

Table of predicted SNOs for the next 14.0 days since TLE Epoch: 11/9/2024
Index Date (METOP-C) Time (METOP-C) Lat,Lon (METOP-C) SZA (METOP-C ) Date (LANDSAT-8) Time (LANDSAT-8) Lat,Lon (LANDSAT-8) SZA (LANDSAT-8 ) Distance(km) Time Diff (sec)
1 11/10/2024 03:29:32 81.09, 166.75 100.64 11/10/2024 03:30:25 81.09, 166.80 100.66 0.85 53
2 11/10/2024 04:20:12 -81.11, -25.40 79.29 11/10/2024 04:19:51 -81.11, -25.27 79.29 2.21 21
3 11/12/2024 23:03:50 81.10,-126.46 101.44 11/12/2024 23:04:38 81.10,-126.58 101.44 2.04 48
4 11/12/2024 23:54:30 -81.12, 41.42 78.49 11/12/2024 23:54:04 -81.12, 41.37 78.51 0.87 26
5 11/15/2024 18:38:09 81.10, -60.29 102.11 11/15/2024 18:38:50 81.09, -60.26 102.13 0.70 41
6 11/15/2024 19:28:49 -81.12, 107.61 77.81 11/15/2024 19:28:16 -81.11, 107.71 77.82 1.66 33
7 11/18/2024 14:12:26 81.10, 6.39 102.80 11/18/2024 14:12:59 81.11, 6.49 102.83 1.93 33
8 11/18/2024 15:03:06 -81.13, 174.31 77.12 11/18/2024 15:02:25 -81.13, 174.47 77.11 2.86 41
9 11/21/2024 09:46:42 81.10, 72.82 103.42 11/21/2024 09:47:06 81.11, 72.93 103.44 2.01 24



Historial Predications of SNOs between METOP-C and LANDSAT-8
